Anchor, Mississippi
Current Conditions -  °F | °C
As of 8:35 PM on Friday 28 Nov 2014 (Local Time) from KSTF Reporting Station
Clear Clear  
Wind Chill: 38°   Ceiling: Unl
Heat Index: 41°   Visibility: NA
Dew Point: 30°   Wind: 5mph
Humidity: 65%   Direction: 170°S
Pressure: 30.22"   Gusts: NA
Location:  33.7962°N, 89.0553°W
Report Text: KSTF 290235Z AUTO 17004KT CLR 05/M01 A3022 RMK AO2 PWINO
Loading
Personal Weather Stations






























Interactive Weather Map New forecast layout! Learn more

10-Day Weather Forecast

Advertisements
Track Severe Weather on mobile